TITAN 3C TRANSTAGE DEB, 2789

Orbit data source: Space-Track

TITAN 3C TRANSTAGE DEB, 2789 is space debris in LEO originally from a launch on Fri, 15 Oct 1965 UTC launched from the Air Force Eastern Test Range (AFETR). Debris objects in space refer to the collection of defunct objects orbiting the Earth. Examples of debris include non-operational satellites, rocket bodies, and fragments generated from explosions, collisions, or faulty payload assembly.

Loading next visibility...
Identifier
2789, 1965-082KR
Orbit
LEO
Country
Flag of USUS
Related business
Manufacturer
Unknown
Mission
Spacecraft
Bus & Motor
Unknown
Mass
Unknown
Launch date (UTC)
1965-10-15 (60 years ago)
Launch vehicle
Unknown
Launch site
Air Force Eastern Test Range (AFETR)
Object type
Payload
Rocket body
Debris
Shape & HBR
Unknown
Radar Cross Section
Small (<0.1 m²)

Expand to show TLE details & history
Last TLE update: 2 days ago

TLE from 2 days ago
0 TITAN 3C TRANSTAGE DEB
1 02789U 65082KR  25258.67924904  .00132742  00000-0  37061-2 0  9998
2 02789  32.2670  32.8528 0017240 266.6565  93.2132 15.35077690 39517
Epoch: 2025-09-15T16:18Z
TLE epoch observation values (Epoch: 2025-09-15T16:18:07.117Z)
Latitude
0.00003°
Longitude
153.44275°
Altitude
459.99 km
Speed
7.639 km/s
True Right ascension
02h 11m 24s
True Declination
0° 00' 00"
Sunlit
Object was in full shadow at epoch
Visualization orbit readout
Latitude
Unknown
Longitude
Unknown
Altitude
Unknown
Speed
Unknown
Apparent Right ascension
Unknown
Apparent Declination
Unknown
Sunlit
N/A
Visualization observer readout
Local Sidereal Time
15:00:27
Azimuth
Unknown
Elevation
Unknown
Doppler factor
Unknown
Orbital elements
Apogee altitude
476.179 km
Perigee altitude
452.586 km
Semi-major axis
6,842.519 km
Eccentricity
0.00172
Inclination
32.267°
RAAN
32.8528°
Arg. of periapsis
266.6565°
True anomaly
93.41042°
Mean anomaly
93.2132°
Eccentric anomaly
93.31181°
Mean motion
3.83459 °/min
Orbital period
93.88 mins
BSTAR
0.0037061
Loading maneuver chart data...
Computing Atmospheric mass density...

Documentation

Showing up to 5 results
|